This demonstration page uses our WeatherBlox Daily Observations layout. Learn more.

Left ArrowRight Arrow

Hourly Observations for March 14, 2020

Temp ( °F °C ) Dew Point ( °F °C ) Humidity (%) Winds ( mph kmh ) Pressure ( in mb ) Visibility ( mi km ) Precip ( " mm )
12:10 am 00:10 Windy with Snow Likely 19 -7.2 14 -10 81 81 E 28 44 30.35 1028 2 2 0.00 0.00
12:21 am 00:21 Mostly Cloudy with Light Snow 19 -7.2 14 -10 81 81 E 29 46 30.35 1028 1 2 0.00 0.00
12:53 am 00:53 Windy with Snow Likely 18 -7.8 14 -10 84 84 E 30 48 30.29 1026 1 2 0.01 0.25
1:24 am 01:24 Windy with Snow Likely 18 -8 14 -10 86 86 E 29 46 30.36 1028 2 2 N/A
1:53 am 01:53 Windy with Snow Likely 18 -7.8 13 -10.6 81 81 E 25 41 30.29 1026 2 2 0.01 0.25
2:53 am 02:53 Windy with Snow Likely 17 -8.3 13 -10.6 84 84 E 22 35 30.29 1026 2 3 0.00 0.00
3:30 am 03:30 Windy with Snow Likely 17 -8.3 13 -10.6 84 84 E 21 33 30.37 1029 3 4 0.00 0.00
3:40 am 03:40 Windy with Snow Likely 17 -8.3 13 -10.6 84 84 E 23 37 30.36 1028 3 5 0.00 0.00
3:50 am 03:50 Windy with Snow Likely 18 -8 12 -11 79 79 E 21 33 30.36 1028 3 4 0.00 0.00
3:53 am 03:53 Windy with Snow Likely 17 -8.3 13 -10.6 84 84 E 23 37 30.28 1026 3 4 0.00 0.00
4:01 am 04:01 Windy with Snow Likely 17 -8.3 13 -10.6 84 84 E 25 41 30.36 1028 2 3 0.00 0.00
4:15 am 04:15 Windy with Snow Likely 17 -8.3 13 -10.6 84 84 E 22 35 30.36 1028 3 4 0.00 0.00
4:40 am 04:40 Windy with Snow Likely 17 -8.3 12 -11.1 80 80 E 21 33 30.36 1028 4 6 0.00 0.00
4:53 am 04:53 Windy with Snow Likely 17 -8.3 12 -11.1 80 80 E 23 37 30.29 1026 4 6 0.00 0.00
5:40 am 05:40 Windy with Snow Likely 17 -8.3 12 -11.1 80 80 E 23 37 30.35 1028 3 4 0.00 0.00
5:53 am 05:53 Windy with Snow Likely 17 -8.3 12 -11.1 80 80 E 25 41 30.28 1025 3 5 0.00 0.00
6:53 am 06:53 Cloudy 17 -8.3 12 -11.1 80 80 E 23 37 30.30 1026 7 11 0.00 0.00
7:37 am 07:37 Windy with Snow Likely 17 -8.3 12 -11.1 80 80 E 21 33 30.37 1029 3 4 0.00 0.00
7:43 am 07:43 Cloudy with Light Snow 17 -8.3 12 -11.1 80 80 E 16 26 30.37 1029 1 2 0.00 0.00
7:53 am 07:53 Windy with Snow Likely 17 -8.3 12 -11.1 80 80 E 20 31 30.31 1026 1 2 0.00 0.00
8:10 am 08:10 Cloudy with Light Snow 17 -8.3 12 -11.1 80 80 E 18 30 30.37 1029 2 2 0.01 0.25
8:27 am 08:27 Cloudy with Light Snow 18 -8 12 -11 79 79 E 16 26 30.38 1029 1 2 N/A
8:36 am 08:36 Cloudy with Light Snow 17 -8.3 13 -10.6 84 84 E 18 30 30.38 1029 2 2 0.01 0.25
8:53 am 08:53 Cloudy with Light Snow 17 -8.3 13 -10.6 84 84 E 14 22 30.32 1027 1 2 0.01 0.25
9:06 am 09:06 Mostly Cloudy with Light Snow 17 -8.3 13 -10.6 84 84 E 17 28 30.39 1029 1 1 0.00 0.00
9:15 am 09:15 Mostly Cloudy with Light Snow 17 -8.3 13 -10.6 84 84 E 17 28 30.39 1029 1 1 0.01 0.25
9:53 am 09:53 Mostly Cloudy with Snow 18 -7.8 14 -10 84 84 E 15 24 30.33 1027 1 1 0.02 0.51
10:12 am 10:12 Mostly Cloudy with Snow 18 -7.8 14 -10 84 84 E 15 24 30.41 1030 1 1 0.00 0.00
10:23 am 10:23 Mostly Cloudy with Snow 18 -7.8 14 -10 84 84 E 14 22 30.41 1030 0 0 0.01 0.25
10:33 am 10:33 Mostly Cloudy with Snow 18 -8 14 -10 86 86 E 15 24 30.41 1030 1 1 N/A
10:53 am 10:53 Mostly Cloudy with Snow 18 -7.8 14 -10 84 84 E 15 24 30.35 1028 1 1 0.03 0.76
11:01 am 11:01 Mostly Cloudy with Snow 18 -7.8 14 -10 84 84 E 16 26 30.42 1030 1 1 0.01 0.25
11:08 am 11:08 Mostly Cloudy with Snow 18 -7.8 14 -10 84 84 E 15 24 30.42 1030 0 0 0.01 0.25
11:22 am 11:22 Mostly Cloudy with Snow 18 -7.8 15 -9.4 88 88 ENE 15 24 30.41 1030 1 1 0.03 0.76
11:53 am 11:53 Mostly Cloudy with Light Snow 19 -7.2 15 -9.4 84 84 E 15 24 30.35 1028 1 1 0.05 1.27
12:53 pm 12:53 Mostly Cloudy with Snow 19 -7.2 15 -9.4 84 84 E 14 22 30.36 1028 1 1 0.03 0.76
1:08 pm 13:08 Mostly Cloudy with Snow 19 -7.2 15 -9.4 84 84 E 13 20 30.42 1030 1 1 0.00 0.00
1:22 pm 13:22 Mostly Cloudy with Light Snow 19 -7.2 15 -9.4 84 84 VRB 6 9 30.43 1031 1 2 0.01 0.25
1:41 pm 13:41 Cloudy with Light Snow 13 -10.6 9 -12.8 84 84 WSW 14 22 30.48 1032 1 1 0.01 0.25
1:48 pm 13:48 Cloudy with Light Snow 12 -11 9 -13 85 85 WSW 15 24 30.48 1032 1 1 0.01 0.25
1:53 pm 13:53 Cloudy with Light Snow 12 -11.1 8 -13.3 84 84 WSW 15 24 30.40 1030 1 1 0.01 0.25
2:05 pm 14:05 Cloudy with Heavy Snow 12 -11.1 8 -13.3 84 84 WSW 14 22 30.49 1032 0 0 0.01 0.25
2:39 pm 14:39 Mostly Cloudy with Snow 13 -10.6 9 -12.8 84 84 WSW 12 19 30.48 1032 1 1 0.04 1.02
2:47 pm 14:47 Mostly Cloudy with Light Snow 12 -11 9 -13 85 85 SW 14 22 30.49 1033 1 2 0.04 1.02
2:48 pm 14:48 Mostly Cloudy with Light Snow 13 -10.6 9 -12.8 84 84 SW 15 24 30.41 1030 1 2 0.04 1.02
3:05 pm 15:05 Mostly Cloudy with Light Snow 14 -10 9 -12.8 80 80 WSW 13 20 30.48 1032 1 1 0.01 0.25
3:53 pm 15:53 Windy with Snow Likely 14 -10 9 -12.8 80 80 WSW 20 31 30.42 1030 1 1 0.02 0.51
4:21 pm 16:21 Mostly Cloudy with Snow 13 -10.6 8 -13.3 81 81 WSW 14 22 30.52 1034 1 1 0.00 0.00
4:53 pm 16:53 Cloudy with Light Snow 12 -11.1 8 -13.3 84 84 WNW 13 20 30.45 1031 1 1 0.01 0.25
5:06 pm 17:06 Cloudy with Light Snow 12 -11.1 8 -13.3 84 84 WNW 14 22 30.54 1034 2 2 0.01 0.25
5:16 pm 17:16 Cloudy with Light Snow 12 -11.1 8 -13.3 84 84 WNW 13 20 30.54 1034 3 4 0.01 0.25
5:25 pm 17:25 Cloudy with Light Snow 12 -11.1 7 -13.9 80 80 WNW 17 28 30.55 1034 2 2 0.01 0.25
5:32 pm 17:32 Cloudy with Light Snow 11 -11.7 7 -13.9 84 84 WNW 16 26 30.56 1035 3 5 0.01 0.25
5:53 pm 17:53 Windy with Snow Likely 11 -11.7 6 -14.4 81 81 WNW 22 35 30.48 1032 2 3 0.01 0.25
6:11 pm 18:11 Cloudy with Light Snow 10 -12.2 5 -15 80 80 WNW 18 30 30.59 1036 1 2 0.00 0.00
6:25 pm 18:25 Mostly Cloudy with Light Snow 10 -12.2 6 -14.4 84 84 WNW 21 33 30.59 1036 1 1 0.00 0.00
6:44 pm 18:44 Mostly Cloudy with Light Snow 10 -12 5 -15 79 79 WNW 22 35 30.60 1036 1 2 N/A
6:53 pm 18:53 Cloudy with Light Snow 10 -12.2 5 -15 80 80 WNW 17 28 30.50 1033 2 3 0.00 0.00
7:08 pm 19:08 Windy with Snow Likely 9 -12.8 5 -15 84 84 WNW 20 31 30.62 1037 2 3 0.00 0.00
7:15 pm 19:15 Cloudy with Light Snow 9 -12.8 5 -15 84 84 WNW 18 30 30.63 1037 1 2 0.00 0.00
7:34 pm 19:34 Windy with Snow Likely 9 -12.8 5 -15 84 84 WNW 21 33 30.63 1037 2 2 0.00 0.00
7:42 pm 19:42 Windy with Snow Likely 9 -12.8 4 -15.6 80 80 NW 20 31 30.64 1037 3 5 0.00 0.00
7:53 pm 19:53 Cloudy with Light Snow 8 -13.3 4 -15.6 83 83 WNW 18 30 30.54 1034 4 6 0.00 0.00
8:53 pm 20:53 Windy with Snow Likely 8 -13.3 3 -16.1 80 80 WNW 21 33 30.57 1035 5 8 0.00 0.00
9:53 pm 21:53 Windy with Snow Likely 8 -13.3 2 -16.7 76 76 WNW 22 35 30.58 1036 4 6 0.00 0.00
10:03 pm 22:03 Windy with Snow Likely 7 -13.9 2 -16.7 80 80 WNW 23 37 30.69 1039 3 4 0.00 0.00
10:14 pm 22:14 Windy with Snow Likely 7 -13.9 2 -16.7 80 80 WNW 21 33 30.68 1039 1 2 0.00 0.00
10:36 pm 22:36 Mostly Cloudy with Light Snow 7 -13.9 3 -16.1 84 84 WNW 20 31 30.69 1039 1 2 0.00 0.00
10:49 pm 22:49 Cloudy with Light Snow 7 -14 3 -16 85 85 WNW 16 26 30.70 1040 1 2 0.00 0.00
10:53 pm 22:53 Cloudy with Light Snow 7 -13.9 3 -16.1 84 84 W 12 19 30.59 1036 1 2 0.00 0.00
11:09 pm 23:09 Cloudy with Light Snow 7 -13.9 2 -16.7 80 80 WSW 13 20 30.71 1040 2 2 0.01 0.25
11:53 pm 23:53 Cloudy with Light Snow 6 -14.4 2 -16.7 83 83 W 14 22 30.60 1036 3 5 0.02 0.51

Powered by AerisWeather